[[{"header":{"parameterUnit":"m.s-1","parameterCategory":2,"la1":30.2991,"la2":30.254,"lo1":-89.0895,"lo2":-89.0444,"dy":0.0017,"dx":0.0017,"nx":28,"ny":28,"refTime":"2025-04-21T09:00:00:Z","depth":"0","parameterNumber":2,"parameterNumberName":"U-component_of_CURRENTS"},"data":[0,0,0,0,0,0,0,0,0,0,0,0,0,0,0,0,0,0,0,0,0,0,0,0,0,0,0,0,0,0,0,0,0,0,0,0,0,0,0,0,0,0,0,0,0,0,0,0,0,0,0,0,0,0,0,0,0,0,0.2471,0.2471,0,0.2468,0.2468,0.2467,0.244,0.244,0.2439,0.2439,0.2402,0.2401,0.2401,0,0,0,0,0,0,0,0,0,0,0,0,0,0.2451,0.2451,0.2471,0.2471,0.2471,0.2468,0.2468,0.2467,0.244,0.244,0.2439,0.2439,0.2402,0.2402,0.2401,0,0,0,0,0,0,0,0,0,0,0,0,0,0.2453,0.2451,0.2471,0.2459,0.2458,0.2468,0.2468,0.2467,0.244,0.244,0.2439,0.2438,0.2402,0.2402,0.2401,0.2409,0,0,0.2398,0.2398,0,0,0,0,0,0,0,0,0.2453,0.2453,0.246,0.246,0.2459,0.2456,0.2447,0.2447,0.2441,0.2445,0.2439,0.2438,0.2419,0.2417,0.2415,0.2408,0.2406,0.2398,0.2398,0.2397,0.2397,0,0,0,0,0,0,0,0.2453,0.2453,0.2467,0.2461,0.246,0.2454,0.2453,0.2447,0.2433,0.2444,0.2443,0.2447,0.2418,0.2416,0.2414,0.2406,0.2398,0.2397,0.2397,0.2397,0.2437,0.2438,0,0,0,0,0,0,0.2459,0.2453,0.2467,0.2467,0.2457,0.2455,0.2454,0.2455,0.2434,0.2431,0.2447,0.2445,0.2417,0.2415,0.2412,0.2445,0.2397,0.2396,0.2396,0.2435,0.2437,0.2439,0,0,0,0,0,0,0.2458,0.246,0.2467,0.2462,0.2463,0.2456,0.2458,0.2456,0.2458,0.2437,0.2433,0.2453,0.2417,0.2413,0.242,0.2442,0.2396,0.2395,0.2433,0.2436,0.2438,0.2494,0,0,0,0,0,0,0.2458,0.246,0.2463,0.2463,0.2463,0.2481,0.2459,0.2456,0.2462,0.246,0.244,0.2436,0.2416,0.2421,0.2419,0.244,0.2395,0.2431,0.2434,0.2437,0.249,0.2498,0.2505,0,0,0,0,0,0.2457,0.2462,0.2463,0.2465,0.2468,0.2482,0.2482,0.2473,0.2464,0.2471,0.2461,0.2437,0.2438,0.2422,0.2419,0.244,0.243,0.2433,0.2437,0.2487,0.2497,0.2505,0,0,0,0,0,0,0.2446,0.246,0.2461,0.2468,0.248,0.2479,0.2484,0.2481,0.248,0.2476,0.2452,0.2448,0.2465,0.2449,0.2431,0.2463,0.2432,0.2435,0.2471,0.248,0.2487,0.2486,0.2394,0,0,0,0,0,0.245,0.2461,0.2473,0.2479,0.2488,0.249,0.2494,0.2493,0.2492,0.249,0.2478,0.2472,0.2478,0.2475,0.2474,0.2487,0.2491,0.2502,0.2509,0.2515,0.2514,0.2551,0.2562,0.245,0.245,0.245,0,0,0.2445,0.2456,0.2461,0.2479,0.2486,0.2501,0.249,0.2504,0.2515,0.2487,0.2497,0.2497,0.2489,0.2506,0.2512,0.2493,0.2553,0.2519,0.2525,0.252,0.2556,0.2567,0.2576,0.2452,0.2452,0.2452,0,0,0.2445,0.2457,0.2468,0.2485,0.2506,0.2513,0.2522,0.2531,0.2535,0.255,0.254,0.2556,0.2551,0.2557,0.2557,0.2606,0.2593,0.2608,0.2638,0.2674,0.2683,0.2692,0.2726,0.2736,0.2608,0.2608,0.2608,0,0.2439,0.2454,0.2473,0.2492,0.2504,0.2522,0.2536,0.2551,0.256,0.2571,0.2559,0.2583,0.2575,0.2608,0.2625,0.2621,0.2639,0.2603,0.2683,0.2691,0.2699,0.2731,0.2742,0.2611,0.261,0.261,0.261,0,0.245,0.2464,0.2474,0.2505,0.2524,0.2541,0.2568,0.2589,0.2598,0.2609,0.2644,0.2645,0.2657,0.2667,0.2657,0.2711,0.2708,0.2691,0.2659,0.2713,0.2745,0.2755,0.2615,0.2614,0.2613,0.2613,0,0,0.2422,0.2472,0.2472,0.2487,0.2532,0.2544,0.2584,0.262,0.2645,0.2665,0.2697,0.2719,0.2726,0.2729,0.2731,0.2761,0.2834,0.275,0.275,0.278,0.2921,0.2923,0.2934,0.2834,0.2836,0.2837,0.2927,0,0.242,0.2448,0.2479,0.2505,0.2521,0.2562,0.2598,0.2636,0.2666,0.2706,0.2733,0.2763,0.2749,0.2763,0.2796,0.2825,0.2862,0.2811,0.2866,0.2868,0.286,0.2947,0.2884,0.2959,0.2937,0.2938,0.294,0,0.2413,0.2435,0.2457,0.2507,0.2519,0.2542,0.26,0.2636,0.2707,0.2735,0.2779,0.2801,0.2859,0.2835,0.2916,0.2887,0.2909,0.2928,0.2932,0.2918,0.289,0.2899,0.2978,0.2932,0.2955,0.2954,0.2953,0,0.2369,0.2415,0.2429,0.2445,0.2509,0.253,0.2568,0.2638,0.2674,0.2757,0.2795,0.2859,0.29,0.2941,0.2987,0.2957,0.3077,0.3037,0.3062,0.3062,0.301,0.3003,0.3045,0.3097,0.3097,0.3096,0.3096,0,0.2349,0.2357,0.2408,0.2415,0.2441,0.25,0.2538,0.2594,0.2677,0.2728,0.2803,0.2861,0.2931,0.3003,0.3023,0.3092,0.3111,0.309,0.3095,0.303,0.3024,0.2979,0.2945,0.31,0.3099,0.3098,0.3098,0,0.2292,0.2327,0.2343,0.2401,0.2417,0.2434,0.2508,0.2544,0.2638,0.2711,0.2743,0.288,0.2989,0.3058,0.3145,0.3147,0.313,0.3215,0.3139,0.3133,0.3088,0.3059,0.2971,0.2865,0.3252,0.3253,0.3254,0,0.2264,0.2268,0.2311,0.2319,0.2341,0.2376,0.2408,0.2505,0.2555,0.2717,0.2757,0.2902,0.3,0.3156,0.3204,0.3272,0.3162,0.3234,0.316,0.3103,0.3074,0.2926,0.283,0.3119,0.3119,0.3119,0.3118,0,0.2213,0.2227,0.2242,0.2258,0.2278,0.23,0.236,0.2393,0.2522,0.2603,0.2738,0.2835,0.3032,0.3108,0.3224,0.3245,0.3098,0.3227,0.3187,0.3001,0.2822,0.2715,0.3043,0.3114,0.3115,0.3115,0.3115,0.3115,0.2168,0.2163,0.2183,0.2188,0.2208,0.222,0.2214,0.2301,0.2369,0.2481,0.2643,0.2769,0.2985,0.3156,0.3155,0.316,0.3078,0.3095,0.3075,0.2938,0.2795,0.3121,0.3183,0.3184,0.3185,0.3185,0.3186,0,0.2113,0.2113,0.2116,0.2111,0.2091,0.2134,0.2174,0.2164,0.2208,0.2378,0.2487,0.272,0.2856,0.2998,0.3125,0.3044,0.2856,0.2965,0.2745,0.2661,0.2995,0.2952,0.2942,0.2942,0.2942,0.2942,0.2942,0.2942,0.2087,0.2062,0.2057,0.1993,0.1986,0.1934,0.1934,0.195,0.2045,0.217,0.231,0.2473,0.2821,0.3061,0.3065,0.2977,0.2719,0.2623,0.2553,0.2827,0.2837,0.2845,0.2798,0.2756,0.2756,0.2109,0.2104,0.2101]},{"header":{"parameterUnit":"m.s-1","parameterCategory":2,"la1":30.2991,"la2":30.254,"lo1":-89.0895,"lo2":-89.0444,"dy":0.0017,"dx":0.0017,"nx":28,"ny":28,"refTime":"2025-04-21T09:00:00:Z","depth":"0","parameterNumber":3,"parameterNumberName":"V-component_of_CURRENTS"},"data":[0,0,0,0,0,0,0,0,0,0,0,0,0,0,0,0,0,0,0,0,0,0,0,0,0,0,0,0,0,0,0,0,0,0,0,0,0,0,0,0,0,0,0,0,0,0,0,0,0,0,0,0,0,0,0,0,0,0,0.0119,0.0118,0,0.0048,0.0047,0.0046,0.0002,0.0002,0.0002,0.0002,-0.0088,-0.009,-0.0093,0,0,0,0,0,0,0,0,0,0,0,0,0,0.0166,0.0165,0.0119,0.0118,0.0118,0.0048,0.0047,0.0046,0.0002,0.0002,0.0002,0.0002,-0.0087,-0.009,-0.0093,0,0,0,0,0,0,0,0,0,0,0,0,0,0.0123,0.0165,0.0119,0.0089,0.0086,0.0049,0.0047,0.0046,0.0002,0.0002,0.0002,0.0002,-0.0086,-0.009,-0.0093,-0.0113,0,0,-0.0104,-0.0106,0,0,0,0,0,0,0,0,0.0126,0.0122,0.0094,0.0091,0.0087,0.0036,0.0031,-0.0008,0.0002,0.0032,0.0002,0.0002,-0.0047,-0.0054,-0.007,-0.0118,-0.0122,-0.0104,-0.0107,-0.0108,-0.0109,0,0,0,0,0,0,0,0.0129,0.0124,0.0089,0.0093,0.0089,0.0062,0.0056,0.0023,-0.0008,0.0029,0.0027,0.0022,-0.0049,-0.0066,-0.0072,-0.0123,-0.0104,-0.0108,-0.011,-0.0111,-0.0186,-0.0186,0,0,0,0,0,0,0.0144,0.0127,0.0091,0.0087,0.0109,0.0061,0.0055,0.0051,-0.0008,-0.0016,0.0022,0.002,-0.006,-0.0068,-0.0075,-0.0087,-0.0108,-0.0111,-0.0113,-0.0186,-0.0186,-0.0186,0,0,0,0,0,0,0.0146,0.0142,0.0094,0.0107,0.0099,0.0061,0.0057,0.0049,0.0036,-0.0013,-0.0022,0.0017,-0.006,-0.007,-0.0097,-0.0092,-0.0113,-0.0116,-0.0187,-0.0186,-0.0186,-0.0121,0,0,0,0,0,0,0.0147,0.0143,0.0145,0.0108,0.0099,0.0081,0.0057,0.0048,0.0034,0.0031,-0.002,-0.0028,-0.0061,-0.0091,-0.01,-0.0097,-0.0119,-0.0187,-0.0187,-0.0186,-0.0123,-0.0118,-0.0114,0,0,0,0,0,0.0149,0.0155,0.0145,0.0141,0.0103,0.0081,0.0074,0.0045,0.0035,0.0032,-0.0001,-0.0027,-0.0097,-0.0094,-0.0105,-0.0102,-0.0187,-0.0187,-0.0186,-0.0125,-0.0119,-0.0114,0,0,0,0,0,0,0.0178,0.0151,0.0139,0.0136,0.0115,0.0075,0.0071,0.0051,0.0022,0.0021,-0.0026,-0.0037,-0.0059,-0.009,-0.0086,-0.0124,-0.0146,-0.0148,-0.0096,-0.0091,-0.0087,-0.0067,-0.0122,0,0,0,0,0,0.0186,0.0183,0.0152,0.0152,0.0144,0.0108,0.0096,0.0078,0.0048,0.0035,0.0001,-0.0036,-0.0068,-0.0085,-0.0118,-0.0138,-0.0165,-0.0144,-0.014,-0.0136,-0.0128,-0.0165,-0.0163,-0.0185,-0.0185,-0.0185,0,0,0.0196,0.0182,0.018,0.0158,0.0138,0.0134,0.01,0.0089,0.0085,0.003,0.0015,-0.0022,-0.007,-0.0091,-0.0104,-0.0115,-0.0142,-0.0135,-0.0131,-0.0126,-0.0165,-0.0162,-0.016,-0.0185,-0.0185,-0.0185,0,0,0.0222,0.0206,0.0213,0.0199,0.0177,0.0156,0.0157,0.0122,0.0107,0.0086,0.0048,0.0018,-0.0032,-0.0063,-0.0085,-0.0077,-0.0118,-0.0091,-0.0054,-0.009,-0.0088,-0.0087,-0.011,-0.0111,-0.0089,-0.0088,-0.0088,0,0.0238,0.0242,0.0212,0.0216,0.0213,0.0172,0.0182,0.0159,0.012,0.0113,0.0092,0.0024,-0.0017,-0.0043,-0.0041,-0.0066,-0.009,-0.0067,-0.0083,-0.0082,-0.0082,-0.0106,-0.0108,-0.0085,-0.0086,-0.0086,-0.0086,0,0.0267,0.027,0.0275,0.0268,0.026,0.0261,0.0231,0.022,0.0197,0.0171,0.0142,0.0083,0.0045,0.0023,-0.0008,-0.0027,-0.0044,-0.0072,-0.0092,-0.0076,-0.0102,-0.0106,-0.0081,-0.0082,-0.0083,-0.0084,0,0,0.0305,0.0298,0.03,0.0311,0.029,0.029,0.0286,0.0272,0.0278,0.0227,0.0227,0.0161,0.0128,0.0101,0.0053,0.0018,-0.0004,-0.0021,-0.0024,-0.0035,-0.0074,-0.0082,-0.0087,-0.0035,-0.0035,-0.0036,-0.0089,0,0.0339,0.0364,0.0349,0.0377,0.039,0.0359,0.0363,0.0345,0.0319,0.0305,0.024,0.0218,0.0158,0.0143,0.0098,0.0024,-0.0012,0.0014,-0.0096,-0.0098,-0.0101,-0.0091,-0.0072,-0.0118,-0.0093,-0.0094,-0.0094,0,0.0376,0.0389,0.0421,0.044,0.0444,0.0451,0.0458,0.0457,0.0423,0.04,0.0358,0.031,0.0255,0.02,0.0085,0.0104,0.0024,-0.0039,-0.0043,-0.0076,-0.0113,-0.0133,-0.0126,-0.0273,-0.01,-0.01,-0.0099,0,0.0422,0.0444,0.0475,0.0478,0.0486,0.0497,0.0503,0.0485,0.0502,0.0461,0.0465,0.0382,0.0354,0.024,0.0113,0.0098,-0.0013,-0.0052,-0.0136,-0.0137,-0.0154,-0.0156,-0.0294,-0.0135,-0.0135,-0.0135,-0.0135,0,0.0466,0.0493,0.0498,0.0515,0.0562,0.0549,0.0589,0.0579,0.058,0.0609,0.0519,0.0527,0.0362,0.0282,0.0147,0.0005,0.0011,-0.0123,-0.0152,-0.013,-0.0129,-0.0285,-0.0382,-0.0137,-0.0137,-0.0136,-0.0136,0,0.0509,0.051,0.055,0.0571,0.0583,0.0616,0.0656,0.0689,0.0673,0.0709,0.0706,0.0641,0.0537,0.0372,0.0197,0.0065,-0.017,-0.0136,-0.0091,-0.0114,-0.0331,-0.0425,-0.0612,-0.0676,-0.0236,-0.0237,-0.0237,0,0.0532,0.0555,0.0595,0.0626,0.0636,0.068,0.0719,0.0731,0.0775,0.0787,0.0821,0.0743,0.071,0.0454,0.0208,-0.0022,-0.0182,-0.0169,-0.0202,-0.0336,-0.0462,-0.0538,-0.0584,-0.0199,-0.0199,-0.0199,-0.0199,0,0.058,0.0589,0.0622,0.0685,0.0731,0.0792,0.085,0.0903,0.0928,0.0968,0.1015,0.0997,0.0761,0.0554,0.0232,0.0054,-0.0278,-0.0178,-0.0335,-0.0458,-0.0532,-0.0608,-0.0166,-0.0199,-0.0199,-0.0199,-0.0199,-0.0199,0.0616,0.0647,0.0688,0.075,0.081,0.0894,0.0954,0.1033,0.1125,0.1203,0.1179,0.1197,0.0875,0.045,0.0183,-0.0276,-0.03,-0.0411,-0.0516,-0.0581,-0.0644,-0.0193,-0.025,-0.025,-0.025,-0.0251,-0.0251,0,0.066,0.0693,0.0752,0.0825,0.0897,0.0922,0.1038,0.1111,0.1232,0.1335,0.1385,0.1281,0.0868,0.0437,-0.0179,-0.053,-0.0671,-0.0733,-0.0843,-0.0875,-0.0484,-0.0482,-0.0567,-0.0567,-0.0567,-0.0567,-0.0567,-0.0567,0.0685,0.0741,0.0766,0.0881,0.0938,0.1043,0.1113,0.1233,0.1342,0.1483,0.1547,0.1574,0.1285,0.0112,-0.067,-0.0867,-0.1121,-0.1196,-0.1321,-0.1062,-0.1039,-0.1018,-0.1038,-0.1239,-0.124,-0.1646,-0.1651,-0.1654]}],[{"header":{"parameterUnit":"m.s-1","parameterCategory":2,"la1":30.2991,"la2":30.254,"lo1":-89.0895,"lo2":-89.0444,"dy":0.0017,"dx":0.0017,"nx":28,"ny":28,"refTime":"2025-04-21T09:00:00:Z","depth":"2","parameterNumber":2,"parameterNumberName":"U-component_of_CURRENTS"},"data":[0,0,0,0,0,0,0,0,0,0,0,0,0,0,0,0,0,0,0,0,0,0,0,0,0,0,0,0,0,0,0,0,0,0,0,0,0,0,0,0,0,0,0,0,0,0,0,0,0,0,0,0,0,0,0,0,0,0,0.2313,0.2314,0,0.2324,0.2324,0.2324,0.2313,0.2313,0.2313,0.2312,0.2296,0.2295,0.2295,0,0,0,0,0,0,0,0,0,0,0,0,0,0.2275,0.2276,0.2313,0.2314,0.2314,0.2324,0.2324,0.2324,0.2313,0.2313,0.2313,0.2312,0.2296,0.2295,0.2295,0,0,0,0,0,0,0,0,0,0,0,0,0,0.2287,0.2276,0.2313,0.2311,0.2312,0.2324,0.2324,0.2324,0.2313,0.2313,0.2312,0.2312,0.2296,0.2295,0.2295,0.2299,0,0,0.2294,0.2294,0,0,0,0,0,0,0,0,0.2287,0.2288,0.2311,0.2312,0.2312,0.2319,0.2304,0.2315,0.2313,0.231,0.2312,0.2312,0.2303,0.2302,0.2302,0.2299,0.2298,0.2294,0.2294,0.2294,0.2293,0,0,0,0,0,0,0,0.2286,0.2288,0.2315,0.2312,0.2312,0.2307,0.2309,0.2306,0.2306,0.231,0.231,0.2315,0.2302,0.2302,0.2301,0.2298,0.2294,0.2294,0.2293,0.2293,0.2341,0.2342,0,0,0,0,0,0,0.229,0.2287,0.2315,0.2316,0.2301,0.2309,0.231,0.2315,0.2306,0.2306,0.2315,0.2315,0.2303,0.2301,0.23,0.234,0.2294,0.2293,0.2293,0.2339,0.2341,0.2343,0,0,0,0,0,0,0.2289,0.2292,0.2315,0.2303,0.2306,0.231,0.2316,0.2315,0.2325,0.2311,0.2309,0.2326,0.2302,0.2301,0.2314,0.2338,0.2293,0.2293,0.2338,0.234,0.2342,0.2398,0,0,0,0,0,0,0.2288,0.2292,0.2299,0.2304,0.2307,0.2332,0.2316,0.2316,0.2329,0.2328,0.232,0.2317,0.2302,0.2315,0.2313,0.2337,0.2292,0.2336,0.2339,0.2341,0.2394,0.2401,0.2408,0,0,0,0,0,0.2287,0.2296,0.23,0.2303,0.2316,0.2333,0.2334,0.2334,0.233,0.234,0.2337,0.2318,0.2332,0.2315,0.2314,0.2338,0.2334,0.2338,0.2341,0.2391,0.24,0.2408,0,0,0,0,0,0,0.2277,0.2296,0.23,0.2313,0.2328,0.2332,0.2342,0.2343,0.2349,0.235,0.2333,0.2331,0.2353,0.2341,0.2323,0.2362,0.2332,0.2335,0.237,0.2378,0.2385,0.2384,0.2292,0,0,0,0,0,0.2281,0.2296,0.2312,0.2324,0.2334,0.2342,0.2349,0.2353,0.2358,0.2361,0.2356,0.2356,0.2365,0.2367,0.237,0.2387,0.239,0.2404,0.2411,0.2417,0.2417,0.245,0.246,0.2354,0.2354,0.2354,0,0,0.228,0.2294,0.2301,0.2324,0.2335,0.2352,0.2345,0.2364,0.2379,0.2358,0.2376,0.2381,0.2377,0.2399,0.2408,0.2391,0.2453,0.2421,0.2426,0.2423,0.2455,0.2465,0.2474,0.2356,0.2356,0.2355,0,0,0.2284,0.23,0.2315,0.2333,0.2358,0.2367,0.2378,0.2393,0.2402,0.2422,0.2418,0.2438,0.2441,0.2449,0.2452,0.25,0.2491,0.2505,0.2536,0.2569,0.2578,0.2586,0.2617,0.2626,0.2506,0.2506,0.2506,0,0.2282,0.2301,0.2321,0.2342,0.2356,0.2377,0.2394,0.2411,0.2429,0.2442,0.2435,0.2468,0.2465,0.25,0.2518,0.2515,0.2532,0.2502,0.2578,0.2586,0.2593,0.2622,0.2632,0.2509,0.2509,0.2509,0.2508,0,0.2296,0.2315,0.2327,0.2361,0.2381,0.2402,0.243,0.2454,0.2468,0.2483,0.2523,0.2529,0.2547,0.2558,0.255,0.2604,0.2601,0.2585,0.2555,0.2607,0.2635,0.2644,0.2514,0.2513,0.2512,0.2511,0,0,0.2275,0.2327,0.2329,0.2346,0.2393,0.2407,0.2449,0.2486,0.2514,0.2541,0.2576,0.2604,0.2614,0.2619,0.2623,0.2652,0.2722,0.2643,0.2643,0.267,0.2802,0.2789,0.2798,0.2722,0.2724,0.2725,0.2807,0,0.2278,0.231,0.234,0.2372,0.239,0.243,0.2467,0.2508,0.254,0.2583,0.2612,0.2647,0.2636,0.2655,0.2685,0.2714,0.2748,0.2701,0.275,0.2752,0.273,0.2809,0.26,0.2654,0.2816,0.2817,0.2819,0,0.2275,0.2299,0.2327,0.2378,0.2392,0.2417,0.2477,0.2514,0.2586,0.2616,0.2662,0.2686,0.2745,0.2723,0.28,0.2774,0.2794,0.281,0.2814,0.2785,0.2756,0.2626,0.2665,0.2834,0.2833,0.2832,0.2831,0,0.2236,0.2286,0.2305,0.2322,0.2387,0.2411,0.2451,0.2521,0.2558,0.2642,0.2681,0.2744,0.2788,0.2825,0.2867,0.2841,0.295,0.2913,0.292,0.2919,0.2741,0.2722,0.2966,0.2966,0.2966,0.2966,0.2966,0,0.222,0.2234,0.2288,0.2298,0.2329,0.2388,0.243,0.2486,0.2569,0.2619,0.2694,0.2748,0.2817,0.2883,0.2901,0.2955,0.298,0.2945,0.2947,0.2757,0.2739,0.2885,0.2874,0.2969,0.2968,0.2968,0.2967,0,0.217,0.2207,0.2229,0.2291,0.2308,0.233,0.2408,0.2444,0.2538,0.2609,0.2642,0.277,0.2868,0.2933,0.3011,0.3004,0.3048,0.3054,0.2834,0.2809,0.2983,0.2974,0.307,0.307,0.307,0.3071,0.3071,0,0.2147,0.2154,0.2203,0.2214,0.224,0.2281,0.2314,0.2412,0.2459,0.2613,0.265,0.2785,0.2865,0.2999,0.3022,0.3074,0.3088,0.2892,0.2802,0.3005,0.2998,0.2988,0.298,0.2589,0.2585,0.2582,0.258,0,0.2101,0.2119,0.2136,0.2159,0.2185,0.2209,0.2271,0.2301,0.2426,0.2499,0.2617,0.27,0.286,0.284,0.2928,0.2916,0.2868,0.2834,0.3107,0.2605,0.2561,0.2551,0.2556,0.2552,0.2555,0.2557,0.2559,0.256,0.2061,0.2059,0.2083,0.2095,0.2119,0.2131,0.2127,0.2206,0.2266,0.2357,0.2501,0.2561,0.2648,0.2689,0.2641,0.2611,0.2798,0.2663,0.2667,0.2677,0.2617,0.2577,0.256,0.2562,0.2564,0.2567,0.2568,0,0.2008,0.2013,0.202,0.2021,0.2006,0.2052,0.2088,0.207,0.21,0.2224,0.2306,0.2202,0.2235,0.2305,0.2242,0.228,0.2207,0.2172,0.2045,0.2077,0.2105,0.2009,0.1794,0.1791,0.1788,0.1785,0,0,0.1983,0.1962,0.1959,0.1905,0.1905,0.1858,0.1856,0.1854,0.1911,0.1917,0.1943,0.2138,0.2264,0.1987,0.1985,0.1872,0.1941,0.1803,0.2439,0.2324,0.2346,0.2424,0.232,0,0,0,0,0]},{"header":{"parameterUnit":"m.s-1","parameterCategory":2,"la1":30.2991,"la2":30.254,"lo1":-89.0895,"lo2":-89.0444,"dy":0.0017,"dx":0.0017,"nx":28,"ny":28,"refTime":"2025-04-21T09:00:00:Z","depth":"2","parameterNumber":3,"parameterNumberName":"V-component_of_CURRENTS"},"data":[0,0,0,0,0,0,0,0,0,0,0,0,0,0,0,0,0,0,0,0,0,0,0,0,0,0,0,0,0,0,0,0,0,0,0,0,0,0,0,0,0,0,0,0,0,0,0,0,0,0,0,0,0,0,0,0,0,0,-0.0,-0.0001,0,-0.0062,-0.0062,-0.0063,-0.0101,-0.0101,-0.0101,-0.0101,-0.0183,-0.0185,-0.0187,0,0,0,0,0,0,0,0,0,0,0,0,0,0.0036,0.0036,-0.0,-0.0001,-0.0001,-0.0061,-0.0062,-0.0063,-0.0101,-0.0101,-0.0101,-0.0101,-0.0182,-0.0184,-0.0187,0,0,0,0,0,0,0,0,0,0,0,0,0,0.0001,0.0036,-0.0,-0.0026,-0.0029,-0.0061,-0.0062,-0.0064,-0.0101,-0.0101,-0.0101,-0.0102,-0.0181,-0.0184,-0.0187,-0.0206,0,0,-0.0197,-0.0199,0,0,0,0,0,0,0,0,0.0003,-0.0001,-0.0022,-0.0024,-0.0028,-0.0072,-0.0079,-0.0112,-0.0101,-0.0076,-0.0101,-0.0102,-0.0146,-0.0152,-0.0166,-0.021,-0.0213,-0.0197,-0.0199,-0.0201,-0.0202,0,0,0,0,0,0,0,0.0005,0.0001,-0.0026,-0.0022,-0.0026,-0.0051,-0.0056,-0.0086,-0.0112,-0.0078,-0.008,-0.0084,-0.0148,-0.0163,-0.0168,-0.0214,-0.0197,-0.02,-0.0202,-0.0203,-0.0271,-0.0271,0,0,0,0,0,0,0.0019,0.0004,-0.0024,-0.0028,-0.001,-0.0051,-0.0057,-0.0059,-0.0111,-0.0118,-0.0084,-0.0086,-0.0157,-0.0165,-0.0171,-0.018,-0.0201,-0.0204,-0.0206,-0.0272,-0.0271,-0.0271,0,0,0,0,0,0,0.002,0.0017,-0.0022,-0.0012,-0.0019,-0.0051,-0.0054,-0.0061,-0.0071,-0.0115,-0.0123,-0.0088,-0.0158,-0.0167,-0.019,-0.0184,-0.0205,-0.0208,-0.0272,-0.0271,-0.0271,-0.0209,0,0,0,0,0,0,0.0021,0.0018,0.0021,-0.0011,-0.0019,-0.0033,-0.0054,-0.0062,-0.0073,-0.0076,-0.0121,-0.0129,-0.0159,-0.0185,-0.0194,-0.0189,-0.021,-0.0272,-0.0272,-0.0271,-0.0211,-0.0207,-0.0203,0,0,0,0,0,0.0023,0.0031,0.0021,0.0018,-0.0014,-0.0032,-0.0038,-0.0064,-0.0073,-0.0074,-0.0103,-0.0127,-0.019,-0.0188,-0.0197,-0.0194,-0.0272,-0.0272,-0.0271,-0.0213,-0.0207,-0.0203,0,0,0,0,0,0,0.0051,0.0027,0.0016,0.0017,-0.0003,-0.0038,-0.004,-0.0058,-0.0083,-0.0084,-0.0126,-0.0136,-0.0155,-0.0184,-0.018,-0.0214,-0.0235,-0.0237,-0.0187,-0.0183,-0.0179,-0.016,-0.0213,0,0,0,0,0,0.0059,0.0058,0.003,0.0032,0.0025,-0.0007,-0.0017,-0.0033,-0.0059,-0.007,-0.0101,-0.0135,-0.0163,-0.0178,-0.0209,-0.0226,-0.0252,-0.0231,-0.0227,-0.0223,-0.0215,-0.0251,-0.0249,-0.0271,-0.0271,-0.0271,0,0,0.0071,0.0058,0.0057,0.0038,0.0021,0.0018,-0.0013,-0.0022,-0.0024,-0.0075,-0.0086,-0.0121,-0.0165,-0.0184,-0.0195,-0.0205,-0.023,-0.0223,-0.0219,-0.0213,-0.025,-0.0248,-0.0246,-0.027,-0.027,-0.027,0,0,0.0098,0.0083,0.0092,0.0079,0.006,0.0041,0.0042,0.0012,-0.0002,-0.0019,-0.0055,-0.0083,-0.0128,-0.0156,-0.0177,-0.0169,-0.0207,-0.0181,-0.0145,-0.0179,-0.0178,-0.0177,-0.02,-0.0202,-0.0179,-0.0178,-0.0178,0,0.0114,0.012,0.0092,0.0097,0.0095,0.0057,0.0068,0.0047,0.0013,0.0006,-0.0012,-0.0075,-0.0113,-0.0136,-0.0134,-0.0158,-0.0181,-0.0158,-0.0173,-0.0172,-0.0172,-0.0197,-0.02,-0.0175,-0.0176,-0.0176,-0.0176,0,0.0145,0.015,0.0156,0.015,0.0143,0.0146,0.0119,0.0109,0.0088,0.0064,0.0037,-0.0017,-0.0052,-0.0073,-0.0102,-0.0119,-0.0137,-0.0162,-0.0181,-0.0166,-0.0194,-0.0197,-0.0171,-0.0172,-0.0173,-0.0174,0,0,0.0185,0.0179,0.0182,0.0192,0.0173,0.0174,0.0173,0.016,0.0166,0.012,0.012,0.0059,0.0028,0.0003,-0.0042,-0.0076,-0.0097,-0.0113,-0.0116,-0.0128,-0.0166,-0.0175,-0.018,-0.0127,-0.0127,-0.0127,-0.0183,0,0.022,0.0245,0.0231,0.0259,0.0272,0.0244,0.0249,0.0232,0.0207,0.0195,0.0134,0.0113,0.0057,0.0044,0.0,-0.007,-0.0105,-0.0079,-0.0187,-0.0189,-0.0192,-0.0184,-0.0162,-0.021,-0.0187,-0.0188,-0.0188,0,0.0256,0.027,0.0302,0.032,0.0325,0.0333,0.034,0.034,0.0308,0.0286,0.0247,0.0201,0.0149,0.0098,-0.0013,0.0006,-0.0071,-0.0132,-0.0136,-0.0167,-0.0204,-0.0224,-0.0218,-0.0195,-0.0194,-0.0194,-0.0193,0,0.0301,0.0324,0.0354,0.0357,0.0366,0.0378,0.0384,0.0368,0.0383,0.0345,0.0348,0.0271,0.0243,0.0134,0.0013,-0.0001,-0.011,-0.0147,-0.0228,-0.023,-0.0243,-0.0245,-0.0227,-0.0227,-0.0227,-0.0227,-0.0226,0,0.0344,0.0371,0.0377,0.0394,0.0439,0.0428,0.0467,0.0458,0.0458,0.0486,0.0402,0.0406,0.0251,0.0172,0.0043,-0.0094,-0.0089,-0.0216,-0.0244,-0.0221,-0.022,-0.0235,-0.0236,-0.0229,-0.0228,-0.0228,-0.0227,0,0.0385,0.0387,0.0427,0.0447,0.046,0.0492,0.0532,0.0562,0.0548,0.0581,0.0578,0.0513,0.0411,0.0254,0.0085,-0.004,-0.018,-0.0233,-0.0188,-0.021,-0.0285,-0.0282,-0.0329,-0.033,-0.0331,-0.0331,-0.0332,0,0.0407,0.0429,0.047,0.05,0.0511,0.0554,0.0592,0.0603,0.0644,0.0653,0.0683,0.0606,0.0566,0.0318,0.0088,-0.0132,-0.017,-0.0265,-0.0294,-0.0272,-0.0296,-0.0291,-0.0287,-0.0288,-0.0288,-0.0288,-0.0288,0,0.0451,0.0461,0.0493,0.0556,0.0601,0.0658,0.0714,0.0763,0.0785,0.082,0.0856,0.0831,0.0604,0.0397,0.0093,-0.0065,-0.023,-0.0273,-0.0266,-0.0261,-0.0237,-0.0259,-0.0255,-0.0288,-0.0288,-0.0288,-0.0288,-0.0288,0.0484,0.0513,0.0554,0.0614,0.0674,0.0753,0.0808,0.0878,0.096,0.102,0.0994,0.0967,0.0717,0.0348,0.0069,-0.0227,-0.0218,-0.0327,-0.0326,-0.0325,-0.0305,-0.0284,-0.034,-0.034,-0.034,-0.034,-0.034,0,0.0521,0.0553,0.0611,0.0681,0.0752,0.0779,0.0886,0.0946,0.1051,0.1118,0.115,0.0929,0.0697,0.0405,-0.0026,-0.0287,-0.0317,-0.0376,-0.035,-0.0348,-0.0346,-0.0328,-0.0368,-0.0369,-0.037,-0.0371,0,0,0.054,0.0593,0.0617,0.0728,0.0786,0.0886,0.0951,0.1047,0.1123,0.1186,0.119,0.1161,0.0811,0.0499,0.0137,-0.0112,-0.0174,-0.017,-0.0119,-0.0044,-0.0039,-0.029,-0.0255,0,0,0,0,0]}],[{"header":{"parameterUnit":"m.s-1","parameterCategory":2,"la1":30.2991,"la2":30.254,"lo1":-89.0895,"lo2":-89.0444,"dy":0.0017,"dx":0.0017,"nx":28,"ny":28,"refTime":"2025-04-21T09:00:00:Z","depth":"4","parameterNumber":2,"parameterNumberName":"U-component_of_CURRENTS"},"data":[0,0,0,0,0,0,0,0,0,0,0,0,0,0,0,0,0,0,0,0,0,0,0,0,0,0,0,0,0,0,0,0,0,0,0,0,0,0,0,0,0,0,0,0,0,0,0,0,0,0,0,0,0,0,0,0,0,0,0.1527,0.1527,0,0.1589,0.159,0.1591,0.1642,0.1642,0.1643,0.1644,0.1707,0.1708,0.171,0,0,0,0,0,0,0,0,0,0,0,0,0,0.1432,0.1434,0.1526,0.1527,0.1528,0.1589,0.159,0.1591,0.1641,0.1642,0.1643,0.1644,0.1707,0.1708,0.171,0,0,0,0,0,0,0,0,0,0,0,0,0,0.148,0.1434,0.1526,0.1563,0.1567,0.1589,0.159,0.1591,0.1641,0.1642,0.1643,0.1644,0.1707,0.1708,0.171,0.1698,0,0,0.1715,0.1715,0,0,0,0,0,0,0,0,0.1477,0.1483,0.1556,0.156,0.1565,0.1611,0.158,0.1627,0.1641,0.1611,0.1644,0.1645,0.1676,0.168,0.1686,0.1701,0.1704,0.1715,0.1716,0.1716,0.1717,0,0,0,0,0,0,0,0.1474,0.1481,0.1549,0.1557,0.1562,0.157,0.1578,0.1589,0.1635,0.1613,0.1618,0.1628,0.1678,0.1685,0.1688,0.1705,0.1715,0.1716,0.1717,0.1718,0.1815,0.1816,0,0,0,0,0,0,0.147,0.1478,0.1547,0.1551,0.1525,0.1571,0.1579,0.1593,0.1635,0.1643,0.1627,0.163,0.1682,0.1686,0.1691,0.1773,0.1716,0.1718,0.1719,0.1813,0.1815,0.1817,0,0,0,0,0,0,0.1468,0.1476,0.1545,0.1517,0.1527,0.1572,0.1586,0.1594,0.1635,0.1645,0.1653,0.1664,0.1683,0.1689,0.1735,0.1772,0.1718,0.172,0.1811,0.1814,0.1816,0.1876,0,0,0,0,0,0,0.1465,0.1475,0.1498,0.1517,0.1528,0.158,0.1586,0.1594,0.1638,0.1643,0.1679,0.1684,0.1684,0.1732,0.1736,0.1773,0.1721,0.1809,0.1812,0.1815,0.1872,0.1881,0.1888,0,0,0,0,0,0.1461,0.1483,0.1498,0.1508,0.1554,0.1581,0.1588,0.1621,0.1639,0.1661,0.169,0.1685,0.1755,0.1735,0.1739,0.1777,0.1808,0.1811,0.1815,0.1869,0.1879,0.1888,0,0,0,0,0,0,0.1456,0.1491,0.1508,0.1542,0.1571,0.1592,0.1621,0.1639,0.1678,0.1696,0.1703,0.171,0.1765,0.1762,0.174,0.1815,0.1782,0.1786,0.1821,0.1831,0.1838,0.1835,0.1722,0,0,0,0,0,0.1464,0.1494,0.1522,0.1554,0.1572,0.1602,0.1624,0.1647,0.1677,0.1697,0.1722,0.175,0.1776,0.1798,0.1817,0.1855,0.1854,0.1884,0.1892,0.1898,0.1899,0.193,0.1941,0.1829,0.1829,0.1829,0,0,0.1471,0.1496,0.1514,0.1556,0.1584,0.1612,0.1619,0.1663,0.1695,0.1696,0.1758,0.1779,0.1793,0.184,0.1864,0.1848,0.1932,0.1903,0.1908,0.1906,0.1935,0.1946,0.1956,0.1832,0.1831,0.1831,0,0,0.1488,0.1525,0.1551,0.1579,0.1627,0.1644,0.1664,0.1705,0.1737,0.1787,0.1801,0.1845,0.1885,0.1904,0.1916,0.1976,0.1971,0.1991,0.203,0.2061,0.207,0.2078,0.21,0.211,0.1996,0.1997,0.1997,0,0.1499,0.1534,0.1564,0.1595,0.1624,0.1662,0.1694,0.1727,0.178,0.181,0.1819,0.1896,0.1912,0.1964,0.1991,0.1994,0.2009,0.1993,0.2071,0.2079,0.2086,0.2106,0.2116,0.2,0.2,0.1999,0.1999,0,0.1523,0.1565,0.1586,0.1637,0.167,0.1708,0.175,0.1797,0.1839,0.1869,0.1942,0.1968,0.2013,0.2031,0.2032,0.2097,0.2091,0.2075,0.2045,0.21,0.2118,0.2127,0.2005,0.2004,0.2003,0.2002,0,0,0.1509,0.1588,0.1599,0.163,0.1698,0.1722,0.1786,0.1844,0.1891,0.195,0.2008,0.2064,0.2088,0.2103,0.2118,0.2149,0.2218,0.2143,0.2143,0.216,0.2291,0.2165,0.2162,0.2222,0.2224,0.2225,0.2286,0,0.1523,0.1582,0.1621,0.1683,0.1714,0.1772,0.1824,0.1885,0.194,0.2006,0.2053,0.2114,0.2112,0.2149,0.2182,0.2212,0.2244,0.2203,0.2237,0.2238,0.2116,0.2169,0.2231,0.2292,0.2294,0.2295,0.2297,0,0.1527,0.1569,0.1629,0.1708,0.1729,0.1776,0.1865,0.1918,0.2012,0.2058,0.2126,0.2163,0.2236,0.2219,0.2297,0.2276,0.2292,0.2304,0.2306,0.217,0.2128,0.2223,0.2312,0.2311,0.231,0.2309,0.2308,0,0.1487,0.1571,0.1621,0.1649,0.1742,0.1791,0.1849,0.1941,0.1992,0.21,0.2149,0.2229,0.2285,0.232,0.2358,0.234,0.2428,0.2398,0.2297,0.2289,0.2356,0.2347,0.2444,0.2444,0.2444,0.2444,0.2444,0,0.1468,0.1511,0.1613,0.1639,0.1705,0.1782,0.1859,0.1929,0.203,0.2087,0.2179,0.2226,0.2316,0.2373,0.2387,0.2371,0.2453,0.2309,0.2297,0.2381,0.2374,0.2363,0.2352,0.2446,0.2446,0.2445,0.2445,0,0.1412,0.148,0.1541,0.1651,0.1688,0.1738,0.1857,0.1905,0.2016,0.2094,0.2136,0.2254,0.2324,0.2391,0.2457,0.2397,0.24,0.2374,0.2475,0.2466,0.2232,0.2225,0.2254,0.225,0.2247,0.2244,0.2242,0,0.1385,0.1414,0.1533,0.157,0.1627,0.1711,0.1765,0.1886,0.1933,0.2086,0.2111,0.2231,0.2292,0.2283,0.2364,0.2383,0.2357,0.234,0.2266,0.2229,0.2214,0.2212,0.2209,0.2236,0.2236,0.2235,0.2234,0,0.133,0.1389,0.1438,0.1515,0.1581,0.1635,0.1724,0.1743,0.1875,0.1993,0.2033,0.2072,0.215,0.2196,0.2237,0.2242,0.2337,0.2304,0.231,0.2241,0.2208,0.2196,0.2197,0.2222,0.2224,0.2225,0.2226,0,0.1293,0.1312,0.1387,0.144,0.1515,0.1537,0.1591,0.1645,0.1704,0.1867,0.1877,0.2003,0.2122,0.2125,0.2159,0.2162,0.2123,0.2042,0.2061,0.2075,0.1989,0.192,0.1839,0,0,0,0,0,0.1245,0.1257,0.1303,0.135,0.1417,0.146,0.1554,0.161,0.1733,0.1714,0.1788,0.1848,0.1897,0.1968,0.1936,0.2091,0.2139,0.2045,0.2057,0.2158,0.2172,0.2088,0,0,0,0,0,0,0.1212,0.1257,0.127,0.1261,0.1276,0.1332,0.1386,0.147,0.1465,0.1599,0.1637,0.1742,0.1823,0.1898,0.1902,0.1924,0.1895,0.2131,0.2126,0.2151,0.2163,0.2174,0.2092,0,0,0,0,0]},{"header":{"parameterUnit":"m.s-1","parameterCategory":2,"la1":30.2991,"la2":30.254,"lo1":-89.0895,"lo2":-89.0444,"dy":0.0017,"dx":0.0017,"nx":28,"ny":28,"refTime":"2025-04-21T09:00:00:Z","depth":"4","parameterNumber":3,"parameterNumberName":"V-component_of_CURRENTS"},"data":[0,0,0,0,0,0,0,0,0,0,0,0,0,0,0,0,0,0,0,0,0,0,0,0,0,0,0,0,0,0,0,0,0,0,0,0,0,0,0,0,0,0,0,0,0,0,0,0,0,0,0,0,0,0,0,0,0,0,-0.0017,-0.0017,0,-0.0058,-0.0058,-0.0059,-0.0089,-0.0089,-0.0089,-0.009,-0.0153,-0.0154,-0.0156,0,0,0,0,0,0,0,0,0,0,0,0,0,0.0006,0.0005,-0.0017,-0.0017,-0.0018,-0.0058,-0.0058,-0.0059,-0.0089,-0.0089,-0.009,-0.009,-0.0152,-0.0154,-0.0156,0,0,0,0,0,0,0,0,0,0,0,0,0,-0.0017,0.0005,-0.0017,-0.0037,-0.0039,-0.0058,-0.0058,-0.0059,-0.0089,-0.0089,-0.009,-0.009,-0.0152,-0.0154,-0.0156,-0.0165,0,0,-0.0163,-0.0164,0,0,0,0,0,0,0,0,-0.0016,-0.0018,-0.0033,-0.0035,-0.0038,-0.0068,-0.0074,-0.0095,-0.0089,-0.0071,-0.009,-0.009,-0.0126,-0.013,-0.0138,-0.0168,-0.0171,-0.0163,-0.0165,-0.0166,-0.0167,0,0,0,0,0,0,0,-0.0014,-0.0017,-0.0034,-0.0034,-0.0036,-0.0054,-0.0057,-0.0078,-0.0098,-0.0073,-0.0075,-0.0078,-0.0127,-0.0136,-0.014,-0.0172,-0.0163,-0.0165,-0.0167,-0.0168,-0.0218,-0.0218,0,0,0,0,0,0,-0.0005,-0.0015,-0.0033,-0.0035,-0.0026,-0.0054,-0.0058,-0.0059,-0.0097,-0.0103,-0.0077,-0.0079,-0.0132,-0.0137,-0.0142,-0.0151,-0.0166,-0.0168,-0.0169,-0.0218,-0.0218,-0.0218,0,0,0,0,0,0,-0.0005,-0.0007,-0.0031,-0.0026,-0.003,-0.0054,-0.0055,-0.0059,-0.0069,-0.01,-0.0106,-0.0082,-0.0132,-0.0139,-0.0158,-0.0154,-0.0169,-0.0171,-0.0218,-0.0218,-0.0218,-0.0171,0,0,0,0,0,0,-0.0004,-0.0006,-0.0004,-0.0025,-0.003,-0.0037,-0.0055,-0.006,-0.0069,-0.0072,-0.0106,-0.0112,-0.0133,-0.0154,-0.016,-0.0157,-0.0173,-0.0218,-0.0218,-0.0218,-0.0172,-0.0169,-0.0166,0,0,0,0,0,-0.0003,0.0005,-0.0004,-0.0006,-0.0026,-0.0037,-0.0041,-0.006,-0.0069,-0.007,-0.0093,-0.0111,-0.0158,-0.0156,-0.0163,-0.016,-0.0219,-0.0218,-0.0218,-0.0174,-0.017,-0.0166,0,0,0,0,0,0,0.0018,0.0002,-0.0008,-0.0005,-0.0019,-0.0042,-0.0043,-0.0057,-0.0076,-0.0078,-0.011,-0.0117,-0.0133,-0.0154,-0.015,-0.0176,-0.0192,-0.0193,-0.0155,-0.0152,-0.0149,-0.0133,-0.0175,0,0,0,0,0,0.0023,0.0023,0.0004,0.0007,0.0002,-0.0021,-0.0028,-0.004,-0.0059,-0.0067,-0.0091,-0.0117,-0.0138,-0.015,-0.0172,-0.0184,-0.0206,-0.0189,-0.0186,-0.0183,-0.0175,-0.0205,-0.0204,-0.0218,-0.0218,-0.0218,0,0,0.0033,0.0024,0.0024,0.0011,-0.0001,-0.0,-0.0026,-0.0031,-0.0031,-0.0071,-0.0079,-0.0107,-0.0139,-0.0153,-0.0162,-0.0169,-0.019,-0.0183,-0.018,-0.0174,-0.0205,-0.0204,-0.0203,-0.0218,-0.0218,-0.0218,0,0,0.0055,0.0044,0.0052,0.0043,0.0029,0.0016,0.0017,-0.0005,-0.0015,-0.0028,-0.0056,-0.0079,-0.0111,-0.0132,-0.0148,-0.0142,-0.0173,-0.0152,-0.0123,-0.0153,-0.0152,-0.0151,-0.0174,-0.0176,-0.015,-0.015,-0.015,0,0.0067,0.0073,0.0052,0.0058,0.0057,0.0027,0.0038,0.0023,-0.0001,-0.0007,-0.0023,-0.0071,-0.01,-0.0116,-0.0115,-0.0134,-0.0155,-0.0133,-0.0148,-0.0148,-0.0148,-0.0172,-0.0175,-0.0148,-0.0148,-0.0148,-0.0149,0,0.0092,0.0098,0.0103,0.01,0.0097,0.01,0.0081,0.0075,0.0057,0.0039,0.0017,-0.0025,-0.0051,-0.0068,-0.009,-0.0105,-0.0121,-0.014,-0.0154,-0.0143,-0.017,-0.0173,-0.0145,-0.0145,-0.0146,-0.0147,0,0,0.0121,0.0121,0.0123,0.0132,0.012,0.0123,0.0124,0.0117,0.0122,0.0086,0.0085,0.0039,0.0012,-0.0007,-0.0043,-0.007,-0.0092,-0.0101,-0.0104,-0.0117,-0.0154,-0.0154,-0.0158,-0.0115,-0.0116,-0.0116,-0.0171,0,0.0148,0.017,0.0162,0.0188,0.0198,0.0179,0.0186,0.0175,0.0156,0.0147,0.0097,0.0082,0.0036,0.0025,-0.001,-0.0069,-0.0099,-0.0075,-0.0168,-0.017,-0.0166,-0.0161,-0.0117,-0.0174,-0.0175,-0.0176,-0.0176,0,0.0175,0.0187,0.0215,0.0235,0.0239,0.0249,0.0258,0.0261,0.0237,0.022,0.0189,0.0152,0.0109,0.0068,-0.0026,-0.0009,-0.0074,-0.0125,-0.0129,-0.0146,-0.0176,-0.0189,-0.0183,-0.0182,-0.0182,-0.0181,-0.0181,0,0.0203,0.0227,0.0253,0.0257,0.027,0.0284,0.0292,0.0283,0.0297,0.0268,0.027,0.0206,0.0182,0.0092,-0.001,-0.0019,-0.0115,-0.0143,-0.0206,-0.0207,-0.0212,-0.0212,-0.0211,-0.0211,-0.0211,-0.0211,-0.0211,0,0.0231,0.0254,0.0269,0.0283,0.0324,0.032,0.0356,0.0352,0.0356,0.0377,0.0312,0.031,0.0187,0.0119,0.0013,-0.01,-0.01,-0.0196,-0.022,-0.0191,-0.0188,-0.0214,-0.0214,-0.0213,-0.0212,-0.0212,-0.0212,0,0.0253,0.0261,0.0297,0.0323,0.0337,0.0365,0.0408,0.0433,0.0426,0.0452,0.045,0.0393,0.0301,0.0176,0.0034,-0.0059,-0.0175,-0.0218,-0.0165,-0.0186,-0.0254,-0.0251,-0.0292,-0.0292,-0.0293,-0.0293,-0.0293,0,0.0264,0.0283,0.0328,0.0356,0.037,0.0412,0.0446,0.0464,0.0494,0.0503,0.052,0.0454,0.0393,0.0205,0.0057,-0.014,-0.0176,-0.0239,-0.026,-0.0242,-0.0262,-0.0258,-0.0254,-0.0294,-0.0294,-0.0294,-0.0294,0,0.0285,0.0301,0.033,0.0388,0.0431,0.0483,0.0532,0.0564,0.0587,0.0588,0.0584,0.0488,0.0385,0.0223,0.0073,-0.0074,-0.02,-0.0244,-0.0245,-0.0265,-0.0245,-0.0263,-0.0259,-0.0295,-0.0295,-0.0295,-0.0295,0,0.03,0.0323,0.0362,0.0414,0.0475,0.0535,0.056,0.0599,0.0632,0.0643,0.0642,0.0526,0.0463,0.0257,0.0118,-0.0023,-0.0072,-0.0132,-0.014,-0.0141,-0.0088,-0.0041,-0.0042,0,0,0,0,0,0.031,0.0334,0.0385,0.0442,0.0508,0.0543,0.0611,0.0631,0.0659,0.0669,0.066,0.0565,0.0369,0.0285,0.0145,0.0086,-0.0113,-0.0086,-0.0189,-0.0302,-0.0301,-0.0266,0,0,0,0,0,0,0.0313,0.0357,0.0381,0.0458,0.0502,0.0575,0.062,0.0642,0.0647,0.0657,0.0563,0.0517,0.033,0.0451,0.014,0.0096,0.0008,-0.0176,-0.0179,-0.0303,-0.0302,-0.0301,-0.0264,0,0,0,0,0]}]]